Location: Nitra
(0.0000°N, 18.0833°E)
Time: 06:07:09
(UTC+01:00)

Chunghua 1 - Pass Details

Date: 24 January 2021
Orbit: 455 x 488 km, 34.9° (Epoch: 04 March)

Event Time Altitude Azimuth Distance (km) Brightness Sun altitude
Rises 19:15:30 0° 229° (SW) 2,491 9.5 -17.8°
Reaches altitude 10° 19:17:41 10° 227° (SW) 1,620 8.2 -18.3°
Maximum altitude 19:21:23 71° 143° (SE) 501 4.4 -19.2°
Enters shadow 19:21:53 60° 90° (E) 543 4.4 -19.3°
